Tracking 27122 objects as of 24-Mar-2023
HD Live streaming from Space Station
objects crossing your sky now

CZ-2C R/B

Track CZ-2C R/B now!
10-day predictions


NORAD ID: 39364
Int'l Code: 2013-059B
Perigee: 430.7 km
Apogee: 481.1 km
Inclination: 97.1 °
Period: 93.6 minutes
Semi major axis: 6826 km
RCS: Unknown
Launch date: October 29, 2013
Source: People's Republic of China (PRC)
Launch site: Taiyaun Space Center, China (TSC)

Note: This is a ROCKET BODY
Your satellite tracking list
Your tracking list is empty




NASA's NSSDC Master Catalog

Two Line Element Set (TLE):
1 39364U 13059B   23083.09482000  .00037287  00000-0  93903-3 0  9996
2 39364  97.1168 132.3526 0036881  49.0613 311.3815 15.39096467523125
Source of the keplerian elements: AFSPC